Погода в Нюрбе

Хотите узнать прогноз погоды в Нюрбе? Тогда Вам сюда: Погода в Нюрбе

Поиск расширенной информации на нашем сайте:

Полезная информация:

Новости сайта



02.01.2020
Опубликован Долгосрочный прогноз погоды по городам России и ближнего зарубежья на январь 2020 года.
Карты: Прогноз на январь и февраль 2020 года, Сравнение прогнозируемой аномалии приземной температуры воздуха на январь 2020 года по разным моделям.




Погода в Нюрбе - сегодня

Время (UTC), дата Ветер
(°,м/с) 
Видим.   Явления Облачность Т
(°С)
Тd
(°С)
f(%) Тe
(°С)
Pmin
(гПа)
dP
(гПа)
Po
(мм)
O2
(г/м3)
Тmin Tmax R s Состояние
почвы
09 23.11.20 280 (З) 20000 м    10/0 средняя, верхняя 
[As trans|Cs]
-13.9 -15.2 90 -14  1013.4  2.2  748  319           
12 23.11.20 290 (З) 20000 м  слаб. снег  10/0 средняя 
[As op]
-15.3 -16.6 90 -15  1015.6  2.1  750  321    -11.5  0.3     
15 23.11.20 270 (З) 20000 м  {снег}  10/0 верхняя 
[Cs]
-19.9 -21.8 85 -20  1017.7  1.8  751  328           
18 23.11.20 250 (З) 20000 м  {снег}  4/0 верхняя 
[Cs]
-22.7 -24.5 85 -23  1019.4  1.4  752  332           
21 23.11.20 260 (З) 20000 м    3/0 средняя 
[As trans]
-21.3 -23.1 85 -24  1020.4  1.1  753  331           
00 24.11.20 250 (З) 20000 м    3/0 средняя 
[As trans]
-23.1 -24.9 85 -26  1022.1  1.6  754  334  -23.4    0.0  11  равномерный
сухой снег
100% 
15 24.11.20 240 (ЮЗ) 20000 м    5/0 верхняя 
[Ci fib]
-21.9 -23.7 85 -26  1027.1  0.8  758  334           
18 24.11.20 230 (ЮЗ) 20000 м    5/0 верхняя 
[Ci fib]
-23 -24.9 84 -26  1027.9  0.7  758  335           
21 24.11.20 260 (З) 20000 м    3/0 верхняя 
[Ci fib]
-18.9 -20.8 85 -19  1027.7  0.1  759  330           
00 25.11.20 280 (З) 20000 м    10/0 средняя, верхняя 
[Ac trans|Ci fib]
-17.7 -18.9 90 -20  1028.2  0.6  759  329  -23.1    0.0  11  равномерный
сухой снег
100% 
03 25.11.20 290 (З) 20000 м    10/0 средняя, верхняя 
[Ac trans|Ci fib]
-17.1 -19 85 -20  1028.6  0.4  759  328           
06 25.11.20 270 (З) 20000 м    6/0 средняя, верхняя 
[Ac trans|Ci fib]
-15.8 -17.7 85 -18  1029.5  0.9  760  327           
09 25.11.20 260 (З) 20000 м    3/0 средняя 
[Ac trans]
-19 -20.9 85 -22  1030.5  0.8  761  331           
12 25.11.20 250 (З) 20000 м    3/0 средняя 
[Ac trans]
-19.7 -21.6 85 -22  1031.6  1.1  761  332    -15.3  0.0     
15 25.11.20 250 (З) 20000 м    4/0 средняя 
[Ac trans]
-20 -21.9 85 -23  1032.6  762  333           
18 25.11.20 230 (ЮЗ) 20000 м    4/0 средняя 
[Ac trans]
-22.8 -24.6 85 -26  1033.1  0.3  762  337           
21 25.11.20 230 (ЮЗ) 20000 м    4/0 средняя 
[Ac trans]
-24.8 -27.3 80 -30  1033.8  0.5  763  340           
00 26.11.20 240 (ЮЗ) 20000 м    6/0 средняя, верхняя 
[Ac trans|Ci fib]
-25.3 -27.7 80 -29  1033.9  0.1  763  341  -25.3    0.0  11  равномерный
сухой снег
100% 
03 26.11.20 240 (ЮЗ) 20000 м    10/0 верхняя 
[Cs]
-23.7 -26.1 80 -27  1034.4  0.5  763  339  -25.6         
06 26.11.20 240 (ЮЗ) 20000 м    5/0 верхняя 
[Cs]
-21.9 -24.4 80 -25  1034.3  763  336           
09 26.11.20 240 (ЮЗ) 20000 м    5/0 средняя 
[As trans]
-23 -24.9 84 -23  1034.8  0.4  764  338           
12 26.11.20 240 (ЮЗ) 20000 м    4/0 средняя 
[Ac trans]
-23.2 -25 85 -26  1034.8  764  338    -21.7  0.0     
15 26.11.20 240 (ЮЗ) 20000 м  слаб. снег  10/0 средняя, верхняя 
[As trans|Cs]
-21.3 -23.1 85 -22  1034.3  -0.3  763  335           
18 26.11.20 250 (З) 20000 м  в посл. час снег  10/0 средняя, верхняя 
[As trans|Cs]
-22.6 -24.4 85 -23  1034.3  -0.1  763  337           
21 26.11.20 240 (ЮЗ) 20000 м    10/0 средняя, верхняя 
[As trans|Cs]
-25.9 -27.7 85 -29  1033.8  -0.6  763  341           
Время (UTC), дата Ветер
(°,м/с) 
Видим.   Явления Облачность Т
(°С)
Тd
(°С)
f(%) Тe
(°С)
Pmin
(гПа)
dP
(гПа)
Po
(мм)
O2
(г/м3)
Тmin Tmax R s Состояние
почвы

Для получения пояснительной информации подведите курсор к названию столбца.

ПОГОДА в Нюрбе - архив

Всё, что Вы хотите узнать о погоде в Нюрбе - удобно и подробно!

Выберите нужную дату (начиная с 1 января 2019* года) и нажмите кнопку "Найти".
Будут отображены архивные сводки погоды по пункту Нюрба, начиная с указанной даты.


Отображать данные в формате CSV (для использования в таблицах Excel)


Внимание! Наш архив погоды предназначен исключительно для личного некоммерческого использования в познавательных целях. Если Вам необходимы официальные справки о состоянии погоды (для производственных, юридических, коммерческих и т.п. целей), обращайтесь в органы Росгидромета.

*Примечание: данная дата относится к архиву по метеостанциям СССР (Россия, СНГ, Балтия).
Архив по метеостанциям Зарубежной Европы и Азии (кроме Китая) хранится 10 дней, по другим регионам земного шара (Китай, Африка, Америка, Австралия, Океания) - 1 день.

Нюрба - район местоположения метеостанции


Название, широта, долгота, высота метеостанции:
Нюрба 63.3°ш. 118.3°д. 119 м над ур. моря [Российская Федерация]

Дополнительная информация

В oтличие oт бoльшинства пoгoдных сайтoв мы публикуем пoдрoбную метеoинфoрмацию в детальнoм прoфессиoнальнoм фoрмате.

Характеристики температуры и влажнoсти вoздуха измеряются на высoте 2 м в тени вдали oт зданий и деревьев.
Скoрoсть ветра измеряется на высoте 10 м (на урoвне рoста челoвека скoрoсть ветра ниже в 1.5-2 раза). Если метеoстанция нахoдится в гoрoде или в лесу, тo скoрoсть ветра занижена на 2-4 м/с пo сравнению с oткрытым местoм. Скoрoсть ветра над акватoриями крупных рек и oзёр, а также на вершинах хoлмoв на 2-5 м/с выше, чем в oбычных услoвиях.
Атмoсфернoе давление в разных тoчках местнoсти мoжет значительнo oтличаться oт давления на метеoстанции, в зависимoсти oт услoвий рельефа (при пoдъёме на 10 м давление пoнижается примернo на 1 мм рт.ст.).